| time (UTC) | temp F | wind direction | speed MPH | gust MPH | rain 1hr in | rain 24hr in | rain mn in | humidity % | barometer mb |
| 20260905031549 | 71 | 165 | 4.0 | 10.0 | 0.00 | 0.00 | 0.00 | 38 | 1012.5 |
| 20260905030050 | 73 | 35 | 8.0 | 15.0 | 0.00 | 0.00 | 0.00 | 36 | 1012.4 |
| 20260905024543 | 74 | 36 | 9.0 | 22.0 | 0.00 | 0.00 | 0.00 | 35 | 1012.4 |
| 20260905023052 | 73 | 11 | 3.0 | 4.0 | 0.00 | 0.00 | 0.00 | 29 | 1012.2 |
| 20260905021549 | 73 | 297 | 1.0 | 5.0 | 0.00 | 0.00 | 0.00 | 32 | 1011.8 |
| 20260905020058 | 74 | 248 | 2.0 | 6.0 | 0.00 | 0.00 | 0.00 | 29 | 1011.6 |
| 20260905014544 | 77 | 311 | 3.0 | 11.0 | 0.00 | 0.00 | 0.00 | 25 | 1011.2 |
| 20260905013047 | 79 | 309 | 5.0 | 13.0 | 0.00 | 0.00 | 0.00 | 25 | 1011.0 |
| 20260905011545 | 80 | 269 | 7.0 | 20.0 | 0.00 | 0.00 | 0.00 | 23 | 1011.0 |
| 20260905010101 | 80 | 293 | 8.0 | 15.0 | 0.00 | 0.00 | 0.00 | 23 | 1010.8 |
| 20260905004609 | 81 | 269 | 5.0 | 17.0 | 0.00 | 0.00 | 0.00 | 24 | 1010.7 |
| 20260905003049 | 81 | 302 | 7.0 | 18.0 | 0.00 | 0.00 | 0.00 | 25 | 1010.6 |
| 20260905001554 | 82 | 264 | 10.0 | 18.0 | 0.00 | 0.00 | 0.00 | 25 | 1010.4 |
| 20260905000219 | 82 | 280 | 16.0 | 28.0 | 0.00 | 0.00 | 0.00 | 23 | 1010.0 |
| 20260904223051 | 83 | 295 | 11.0 | 23.0 | 0.00 | 0.00 | 0.00 | 24 | 1010.4 |
| 20260904221558 | 83 | 252 | 10.0 | 20.0 | 0.00 | 0.00 | 0.00 | 25 | 1010.3 |
| 20260904220050 | 83 | 301 | 10.0 | 25.0 | 0.00 | 0.00 | 0.00 | 25 | 1010.4 |
| 20260904214545 | 83 | 317 | 9.0 | 20.0 | 0.00 | 0.00 | 0.00 | 25 | 1010.2 |
| 20260904213049 | 84 | 272 | 8.0 | 21.0 | 0.00 | 0.00 | 0.00 | 24 | 1010.1 |
| 20260904211545 | 83 | 228 | 11.0 | 25.0 | 0.00 | 0.00 | 0.00 | 22 | 1009.9 |
| 20260904210056 | 83 | 230 | 9.0 | 25.0 | 0.00 | 0.00 | 0.00 | 23 | 1009.6 |
| 20260904204549 | 83 | 347 | 11.0 | 21.0 | 0.00 | 0.00 | 0.00 | 23 | 1009.4 |
| 20260904203047 | 82 | 309 | 11.0 | 18.0 | 0.00 | 0.00 | 0.00 | 24 | 1009.4 |
| 20260904201545 | 83 | 319 | 8.0 | 23.0 | 0.00 | 0.00 | 0.00 | 22 | 1009.6 |
| 20260904194554 | 82 | 314 | 9.0 | 21.0 | 0.00 | 0.00 | 0.00 | 24 | 1009.6 |
| 20260904193051 | 81 | 304 | 9.0 | 20.0 | 0.00 | 0.00 | 0.00 | 25 | 1009.8 |
| 20260904191543 | 82 | 300 | 10.0 | 20.0 | 0.00 | 0.00 | 0.00 | 23 | 1009.8 |
| 20260904190050 | 82 | 292 | 7.0 | 16.0 | 0.00 | 0.00 | 0.00 | 24 | 1009.8 |
| 20260904184549 | 81 | 321 | 5.0 | 14.0 | 0.00 | 0.00 | 0.00 | 23 | 1009.7 |
| 20260904183046 | 80 | 246 | 6.0 | 12.0 | 0.00 | 0.00 | 0.00 | 27 | 1009.9 |
| 20260904181547 | 80 | 205 | 3.0 | 7.0 | 0.00 | 0.00 | 0.00 | 27 | 1009.8 |
| 20260904180052 | 78 | 285 | 1.0 | 7.0 | 0.00 | 0.00 | 0.00 | 32 | 1009.9 |
| 20260904174603 | 76 | 264 | 3.0 | 5.0 | 0.00 | 0.00 | 0.00 | 32 | 1010.0 |
| 20260904173058 | 75 | 0 | 1.0 | 2.0 | 0.00 | 0.00 | 0.00 | 30 | 1009.9 |
| 20260904171600 | 75 | 77 | 0.0 | 3.0 | 0.00 | 0.00 | 0.00 | 32 | 1009.8 |
| 20260904170051 | 74 | 56 | 0.0 | 5.0 | 0.00 | 0.00 | 0.00 | 34 | 1009.7 |
| 20260904164552 | 71 | 107 | 5.0 | 6.0 | 0.00 | 0.00 | 0.00 | 36 | 1009.7 |
| 20260904163048 | 71 | 83 | 3.0 | 5.0 | 0.00 | 0.00 | 0.00 | 36 | 1009.9 |
| 20260904161553 | 70 | 113 | 1.0 | 5.0 | 0.00 | 0.00 | 0.00 | 38 | 1009.9 |
| 20260904160052 | 68 | 110 | 1.0 | 4.0 | 0.00 | 0.00 | 0.00 | 43 | 1009.8 |
| 20260904154550 | 65 | 65 | 2.0 | 4.0 | 0.00 | 0.00 | 0.00 | 47 | 1009.8 |
| 20260904153046 | 62 | 100 | 2.0 | 4.0 | 0.00 | 0.00 | 0.00 | 49 | 1009.9 |
| 20260904151552 | 58 | 0 | 0.0 | 5.0 | 0.00 | 0.00 | 0.00 | 61 | 1009.9 |
| 20260904150050 | 56 | 323 | 1.0 | 2.0 | 0.00 | 0.00 | 0.00 | 62 | 1010.0 |
| 20260904144545 | 55 | 262 | 0.0 | 3.0 | 0.00 | 0.00 | 0.00 | 63 | 1010.0 |
| 20260904143042 | 54 | 250 | 0.0 | 2.0 | 0.00 | 0.00 | 0.00 | 64 | 1010.1 |
| 20260904141551 | 53 | 255 | 1.0 | 3.0 | 0.00 | 0.00 | 0.00 | 65 | 1010.1 |
| 20260904140046 | 51 | 0 | 0.0 | 1.0 | 0.00 | 0.00 | 0.00 | 70 | 1010.0 |
| 20260904134546 | 53 | 318 | 0.0 | 3.0 | 0.00 | 0.00 | 0.00 | 67 | 1009.9 |
| 20260904133045 | 54 | 0 | 0.0 | 3.0 | 0.00 | 0.00 | 0.00 | 60 | 1009.8 |
| 20260904131607 | 52 | 125 | 2.0 | 5.0 | 0.00 | 0.00 | 0.00 | 61 | 1009.6 |
| 20260904130048 | 51 | 96 | 1.0 | 3.0 | 0.00 | 0.00 | 0.00 | 63 | 1009.4 |
| 20260904124542 | 51 | 117 | 2.0 | 5.0 | 0.00 | 0.00 | 0.00 | 64 | 1009.1 |
| 20260904123055 | 52 | 118 | 3.0 | 5.0 | 0.00 | 0.00 | 0.00 | 62 | 1009.0 |
| 20260904121549 | 52 | 98 | 1.0 | 4.0 | 0.00 | 0.00 | 0.00 | 60 | 1009.0 |
| 20260904120050 | 53 | 110 | 2.0 | 5.0 | 0.00 | 0.00 | 0.00 | 57 | 1009.0 |
| 20260904114555 | 54 | 78 | 4.0 | 6.0 | 0.00 | 0.00 | 0.00 | 55 | 1008.9 |
| 20260904113057 | 55 | 100 | 2.0 | 5.0 | 0.00 | 0.00 | 0.00 | 53 | 1008.7 |
| 20260904111550 | 55 | 83 | 3.0 | 5.0 | 0.00 | 0.00 | 0.00 | 56 | 1008.7 |
| 20260904110047 | 56 | 130 | 3.0 | 4.0 | 0.00 | 0.00 | 0.00 | 52 | 1008.7 |
| 20260904104602 | 56 | 89 | 3.0 | 10.0 | 0.00 | 0.00 | 0.00 | 52 | 1008.8 |
| 20260904103103 | 56 | 70 | 4.0 | 9.0 | 0.00 | 0.00 | 0.00 | 53 | 1008.8 |
| 20260904101546 | 58 | 46 | 4.0 | 10.0 | 0.00 | 0.00 | 0.00 | 49 | 1008.9 |
| 20260904100049 | 57 | 123 | 1.0 | 3.0 | 0.00 | 0.00 | 0.00 | 50 | 1009.0 |
| 20260904094553 | 57 | 85 | 4.0 | 7.0 | 0.00 | 0.00 | 0.00 | 49 | 1008.8 |
| 20260904093050 | 58 | 86 | 2.0 | 3.0 | 0.00 | 0.00 | 0.00 | 48 | 1008.9 |
| 20260904091600 | 59 | 138 | 1.0 | 5.0 | 0.00 | 0.00 | 0.00 | 47 | 1009.3 |
| 20260904090045 | 59 | 35 | 4.0 | 7.0 | 0.00 | 0.00 | 0.00 | 48 | 1009.1 |
| 20260904084553 | 60 | 68 | 4.0 | 6.0 | 0.00 | 0.00 | 0.00 | 46 | 1009.3 |
| 20260904083104 | 59 | 71 | 1.0 | 2.0 | 0.00 | 0.00 | 0.00 | 49 | 1009.7 |
| 20260904081543 | 60 | 148 | 1.0 | 2.0 | 0.00 | 0.00 | 0.00 | 47 | 1009.8 |
| 20260904080042 | 62 | 30 | 0.0 | 1.0 | 0.00 | 0.00 | 0.00 | 44 | 1009.9 |
| 20260904074608 | 63 | 345 | 1.0 | 3.0 | 0.00 | 0.00 | 0.00 | 43 | 1009.9 |
| 20260904073050 | 63 | 27 | 0.0 | 2.0 | 0.00 | 0.00 | 0.00 | 46 | 1010.1 |
| 20260904071544 | 65 | 66 | 1.0 | 5.0 | 0.00 | 0.00 | 0.00 | 41 | 1010.2 |
| 20260904070042 | 63 | 61 | 1.0 | 6.0 | 0.00 | 0.00 | 0.00 | 43 | 1010.3 |
| 20260904064549 | 62 | 0 | 1.0 | 2.0 | 0.00 | 0.00 | 0.00 | 49 | 1010.3 |
| 20260904063048 | 61 | 359 | 2.0 | 4.0 | 0.00 | 0.00 | 0.00 | 52 | 1010.1 |
| 20260904061549 | 62 | 307 | 2.0 | 5.0 | 0.00 | 0.00 | 0.00 | 56 | 1009.9 |
| 20260904060053 | 65 | 94 | 2.0 | 4.0 | 0.00 | 0.00 | 0.00 | 42 | 1010.0 |
| 20260904054551 | 65 | 129 | 2.0 | 2.0 | 0.00 | 0.00 | 0.00 | 42 | 1009.9 |
| 20260904053044 | 64 | 0 | 0.0 | 2.0 | 0.00 | 0.00 | 0.00 | 45 | 1010.2 |
| 20260904051544 | 67 | 0 | 0.0 | 3.0 | 0.00 | 0.00 | 0.00 | 40 | 1010.4 |
| 20260904050053 | 67 | 108 | 4.0 | 9.0 | 0.00 | 0.00 | 0.00 | 38 | 1010.4 |
| 20260904044556 | 64 | 74 | 0.0 | 4.0 | 0.00 | 0.00 | 0.00 | 46 | 1010.3 |
| 20260904043057 | 68 | 149 | 3.0 | 6.0 | 0.00 | 0.00 | 0.00 | 35 | 1010.4 |
| 20260904041559 | 67 | 241 | 3.0 | 6.0 | 0.00 | 0.00 | 0.00 | 36 | 1010.2 |
| 20260904040057 | 66 | 245 | 3.0 | 5.0 | 0.00 | 0.00 | 0.00 | 39 | 1010.2 |
| 20260904034554 | 68 | 255 | 2.0 | 6.0 | 0.00 | 0.00 | 0.00 | 35 | 1010.5 |
| 20260904033048 | 68 | 279 | 3.0 | 5.0 | 0.00 | 0.00 | 0.00 | 36 | 1010.6 |